星链-31719 (STARLINK-31719 )

导读

STARLINK-31719是美国太空探索技术公司SpaceX星链星座中的一颗卫星,于2024年4月13日发射升空。星链系统旨在构建全球卫星互联网,为全球偏远地区、海洋与空中提供低延迟宽带网络服务,该卫星进一步扩充了星链星座的规模,提升了覆盖范围与服务能力。

Basic Information
目录编号:
59495
目录名称:
STARLINK-31719
国际标识:
2024-071M
轨道中心:
EARTH
卫星名称:
星链-31719
卫星全名:
星链-31719 (STARLINK-31719 )
卫星状态:
在轨 (已飞行882 天)
发射日期:
2024-04-13 UTC
国别 :
美国 (US)
星等 :
--
This satellite is enrolled in the Space Conjunction Data Service (SCDS) and the current flight risk assessment level is: No High Risk
Orbit Information
数据来源 国际轨道数据
星历时间: 2026-09-12T15:24:04+0800
12小时前
查看轨道信息
半长轴: 6861.189km
偏心率: 0.0001501
轨道倾角: 43.005°
近地点辐角 267.616°
升交点赤经 6.068°
平近点角 92.452°
近地点: 482.022km
远地点: 484.082km
周期: 94.267分钟
每日圈数: 15.275792
Detailed Information
固有亮度:
5
最大亮度:
1.5
卫星平台:
Starlink v2.0 mini
覆盖范围:
全球
运营商:
太空探索技术公司
运营商所在国:
美国
制造商(研发单位):
太空探索技术公司
制造商所在国:
美国
使用方式:
暂无
Satellite Introduction
星链(Starlink)计划是由太空探索技术公司(SpaceX)提出的一个巨型低轨卫星互联网星座项目,计划在2019年至2024年间在太空搭建由约1.2万颗卫星组成的“星链”网络,其中1584颗将部署在地球上空550千米处的近地轨道,并从2020年开始工作。该卫星仍在工作。
2D Orbit Map
3D Orbit Map
Orbit Altitude Analysis Chart
Orbit Inclination Analysis Chart
Orbit Comprehensive Analysis Chart
View Comprehensive Chart
Conjunction Data List
Event ID Objects TCA Miss Dist (km) Collision Risk Probability Collision Risk Index (CRI) Action
CDM_260910-221305-949506-386121
2026-09-10T
22:13:43+0000
0.253 km
中距离
4.914198E-4 高风险 0.89
CDM_260910-203905-949506-386121
2026-09-10T
20:39:34+0000
1.935 km
极远距离
2.088723E-6 低风险 0.41
Miss Distance Evolution Trend with All Objects
Collision Probability Evolution Trend with All Objects